www.pogodaiklimat.ru

Погода и климат >> Архив погоды >> Франция >> Сибур


ПОГОДА в Сибуре

  • Прогноз погоды в Сибуре
  • Монитор погоды в Сибуре

АРХИВ ПОГОДЫ в Сибуре

Время (UTC), дата Ветер
(напр.,м/с)
 
Видим.   Явления Облачность Т
(С)
Тd
(С)
f
(%)
Тe
(С)
Тes
(С)
Комфортность P
(гПа)
Po
(гПа)
Тmin
(С)
Tmax
(С)
R
(мм)
R24
(мм)
S
(см)
22 11.06 ЮЗ 3-5
{5}
н/о н/о +12.1 +9.3 83 +10 +10 1016.0 1010.8 3
23 11.06 ЮЗ 3-5
{5}
н/о н/о +12.1 +8.6 79 +10 +10 1015.3 1010.1 0.2
00 12.06 ЮЗ 3-4
{6}
15 км {ливн. осадки, дождь} 8/8 1000 м
[Sc]
+12.5 +8.4 76 +11 +11 1015.3 1010.1 3
01 12.06 ЮЗ 4-6
{7}
н/о н/о +12.1 +10.5 90 +10 +10 1015.3 1010.1 4
02 12.06 З 5-9
{9}
н/о н/о +12.2 +10.3 88 +10 +10 1014.6 1009.4 2
03 12.06 ЮЗ 2-3
{10}
н/о н/о +11.8 +10.0 89 +11 +11 1014.5 1009.3 6
04 12.06 ЮЗ 2-3
{4}
н/о н/о +11.2 +8.9 86 +10 +10 1014.5 1009.3 0.6
05 12.06 ЮЗ 3-5
{5}
н/о н/о +10.9 +7.6 80 +9 +9 1014.5 1009.3 0.2
06 12.06 ЮЗ 3
{8}
15 км 10/10 600 м
[Cu hum Ac As]
+11.5 +7.2 75 +10 +10 1014.3 1009.1 +10.9 +15.8 0.8
07 12.06 ЮЗ 3-5
{5}
н/о н/о +13.1 +6.9 66 +12 +12 1014.8 1009.6
08 12.06 ЮЗ 3-5
{5}
н/о н/о +13.8 +6.4 61 +13 +13 1015.3 1010.1
09 12.06 ЮЗ 2-3
{6}
н/о н/о +14.7 +6.5 58 +14 +14 1015.4 1010.3
10 12.06 ЮЗ 3-5
{6}
н/о н/о +17.2 +7.8 54 +17 +17 1015.7 1010.6
11 12.06 З 5-7
{7}
н/о н/о +17.9 +8.5 54 +18 +18 1015.8 1010.7
12 12.06 З 4
{11}
18 км 8/3 1000 м
[Cb cap Ac As]
+17.4 +9.6 60 +17 +22 1015.7 1010.6
13 12.06 З 5-6
{6}
н/о н/о +17.2 +10.8 66 +17 +17 1015.5 1010.4
14 12.06 З 5-7
{7}
н/о н/о +17.6 +10.9 65 +17 +17 1015.6 1010.5
15 12.06 СЗ 8
{13}
18 км 4/1 1000 м
[Sc diur, vesp As trans Ci]
+17.7 +10.6 63 +17 +19 1015.6 1010.5
16 12.06 З 4-5
{6}
н/о н/о +17.9 +11.2 65 +18 +18 1015.5 1010.4
17 12.06 З 3-4
{5}
н/о н/о +17.4 +10.5 64 +17 +17 1015.4 1010.3
18 12.06 З 2
{8}
15 км 8/5 1000 м
[Cu hum Ac As Cs]
+17.3 +11.1 67 +18 +19 1015.6 1010.5 +11.5 +18.8
19 12.06 З 2-3
{3}
н/о н/о +16.3 +10.6 69 +16 +16 1015.5 1010.4
20 12.06 З 2-2
{3}
н/о н/о +15.3 +10.3 72 +15 +15 1015.6 1010.5
21 12.06 ЮЗ 1-1
{2}
н/о н/о +14.9 +10.1 73 +15 +15 1015.9 1010.8
22 12.06 ЮЗ 1-1
{2}
н/о н/о +14.5 +10.3 76 +15 +15 1015.6 1010.5
23 12.06 ЮЗ 1-2
{2}
н/о н/о +13.9 +9.9 77 +14 +14 1015.3 1010.1
00 13.06 ЮЗ 2
{3}
15 км 3/0
[Ac cast Ci fib]
+12.5 +9.9 84 +12 +12 1014.7 1009.5
01 13.06 Ю 2-2
{2}
н/о н/о +11.5 +9.6 88 +11 +11 1014.1 1008.9
02 13.06 Ю 1-1
{2}
н/о н/о +10.9 +9.2 89 +11 +11 1013.7 1008.5
03 13.06 Ю 1-2
{2}
15 км 1/0
[Ci fib]
+10.4 +8.7 89 +10 +10 1013.3 1008.1
04 13.06 Ю 2-2
{2}
н/о н/о +10.2 +8.6 90 +9 +9 1013.1 1007.9
05 13.06 Ю 2-2
{2}
н/о н/о +10.2 +8.6 90 +9 +9 1013.5 1008.3
06 13.06 Ю 2
{3}
10 км 6/5 800 м
[Sc Ac und Ci fib]
+11.3 +9.7 90 +10 +11 1013.2 1008.0 +10.1 +17.2
07 13.06 СВ 1-1
{2}
н/о н/о +13.5 +11.4 87 +14 +14 1013.2 1008.1
08 13.06 С 1-2
{2}
н/о н/о +15.9 +11.3 74 +17 +17 1013.1 1008.0
09 13.06 С 2-2
{2}
н/о н/о +17.8 +11.8 68 +19 +19 1013.0 1007.9
10 13.06 С 3-3
{3}
н/о н/о +17.7 +11.7 68 +18 +18 1012.8 1007.7
11 13.06 С 3-4
{4}
н/о н/о +18.7 +12.7 68 +20 +20 1012.3 1007.3
12 13.06 С 3
{7}
20 км 6/3 1200 м
[Sc As trans Cc]
+18.6 +12.6 68 +20 +29 1012.4 1007.3
13 13.06 С 2-3
{3}
н/о н/о +19.1 +12.6 66 +21 +21 комфорт 1011.7 1006.7
14 13.06 С 2-3
{3}
н/о н/о +19.5 +12.7 65 +21 +21 комфорт 1011.6 1006.6
15 13.06 С 3
{7}
20 км 6/4 1000 м
[Sc Ac cast]
+19.5 +13.0 66 +21 +27 комфорт 1011.2 1006.2
16 13.06 СЗ 2-3
{3}
н/о н/о +18.4 +13.5 73 +19 +19 1011.5 1006.5
17 13.06 СЗ 3-4
{4}
н/о н/о +16.5 +13.2 81 +16 +16 1011.8 1006.7 0.2
18 13.06 СЗ 3
{9}
14 км слаб. дождь 10/10 480 м
[Cu Sc]
+15.9 +13.0 83 +15 +15 1012.3 1007.2 +11.3 +19.7 0.4
19 13.06 СЗ 3-4
{4}
н/о н/о +15.5 +12.6 83 +15 +15 1013.1 1008.0 0.4
20 13.06 СЗ 4-5
{5}
н/о н/о +15.6 +12.9 84 +15 +15 1013.5 1008.4 0.2
21 13.06 СЗ 4-5
{6}
н/о {дождь} н/о +15.7 +12.8 83 +15 +15 1014.9 1009.8 0.8
22 13.06 СЗ 3-5
{5}
н/о н/о +15.3 +10.7 74 +15 +15 1015.4 1010.3
23 13.06 СЗ 3-4
{5}
н/о н/о +15.2 +11.4 78 +15 +15 1015.5 1010.4
00 14.06 Ю 1
{6}
15 км {дождь} 10/10 800 м
[St As op]
+14.7 +11.7 82 +15 +15 1015.2 1010.1
01 14.06 ЮЗ 1-2
{2}
н/о н/о +14.2 +11.7 85 +15 +15 1014.8 1009.7
02 14.06 ЮЗ 1-2
{2}
н/о н/о +14.2 +12.1 87 +14 +14 1014.7 1009.6
03 14.06 Ю 1-1
{2}
н/о н/о +13.8 +11.8 88 +14 +14 1014.1 1009.0
04 14.06 Ю 1-1
{2}
н/о н/о +13.4 +12.0 91 +13 +13 1014.4 1009.2
05 14.06 Ю 1-1
{2}
н/о н/о +12.8 +11.2 90 +13 +13 1014.2 1009.0
06 14.06 Ю 1
{3}
н/о н/о +13.3 +11.7 90 +14 +14 1014.0 1008.8 +12.7 +15.9
07 14.06 В 1-1
{1}
н/о н/о +15.5 +12.1 80 +17 +17 1013.9 1008.8
08 14.06 С 2-2
{2}
н/о н/о +17.1 +12.2 73 +18 +18 1013.9 1008.8
09 14.06 С 2-3
{3}
н/о н/о +16.7 +11.0 69 +17 +17 1014.0 1008.9
10 14.06 С 2-3
{3}
н/о н/о +17.2 +11.5 69 +18 +18 1013.8 1008.7
11 14.06 С 2-3
{4}
н/о н/о +16.8 +12.3 75 +17 +17 1013.7 1008.6
12 14.06 С 1-2
{3}
н/о н/о +17.3 +12.2 72 +18 +18 1013.9 1008.8
13 14.06 С 3-3
{3}
н/о н/о +16.7 +12.8 78 +17 +17 1013.7 1008.6
14 14.06 С 2-3
{3}
н/о н/о +16.7 +13.0 79 +17 +17 1013.7 1008.6
15 14.06 СЗ 2-3
{3}
н/о н/о +16.9 +13.0 78 +17 +17 1013.7 1008.6
16 14.06 СЗ 2-3
{3}
н/о н/о +16.9 +12.8 77 +17 +17 1013.8 1008.7
17 14.06 З 3-4
{4}
н/о н/о +16.1 +13.4 84 +16 +16 1014.4 1009.3 0.2
18 14.06 СЗ 3-3
{4}
н/о {дождь} н/о +15.6 +13.8 89 +15 +15 1015.0 1009.9 +13.3 +17.7 1
19 14.06 СЗ 3-4
{4}
н/о н/о +15.0 +12.9 87 +14 +14 1015.6 1010.5 0.0
20 14.06 СЗ 1-2
{4}
н/о н/о +14.9 +12.9 88 +15 +15 1016.2 1011.1 0.2
21 14.06 СЗ 3-3
{3}
н/о {дождь} н/о +14.7 +13.1 90 +14 +14 1017.0 1011.9 0.6
22 14.06 СЗ 2-3
{3}
н/о н/о +14.7 +13.4 92 +14 +14 1017.5 1012.4 0.4
23 14.06 З 4-5
{5}
н/о {гроза, дождь} н/о +14.3 +13.3 94 +13 +13 1018.3 1013.1 2
00 15.06 ЮЗ 2-3
{4}
15 км слаб. ливневой дождь, в посл. час гроза 10/10 600 м
[Frnb]
+13.8 +12.9 94 +13 +13 1018.5 1013.3 4
01 15.06 ЮЗ 2-3
{3}
н/о н/о +13.7 +12.8 94 +13 +13 1018.4 1013.2 0.7
02 15.06 ЮЗ 2-3
{3}
н/о н/о +13.7 +12.8 94 +13 +13 1018.8 1013.6 0.0
03 15.06 ЮЗ 2
{6}
15 км {дождь} 10/10 900 м
[St]
+13.6 +12.3 92 +13 +13 1018.9 1013.7 0.7
04 15.06 ЮЗ 2-3
{3}
н/о н/о +13.6 +12.2 91 +13 +13 1019.4 1014.2
05 15.06 ЮЗ 2-3
{3}
н/о н/о +13.7 +12.3 91 +13 +13 1019.6 1014.4
06 15.06 ЮЗ 2
{6}
н/о {дождь} н/о +13.7 +11.9 89 +13 +13 1019.8 1014.6 +13.6 +15.6
07 15.06 ЮЗ 2-3
{3}
н/о н/о +15.6 +12.3 81 +16 +16 1020.2 1015.1
08 15.06 З 2-2
{3}
н/о н/о +16.8 +12.1 74 +17 +17 1021.1 1016.0
09 15.06 СЗ 2
{6}
25 км 8/6 800 м
[Cu Sc Ci sp]
+18.4 +12.8 70 +19 +24 1021.5 1016.4
10 15.06 СЗ 2-2
{3}
н/о н/о +19.4 +13.6 69 +22 +22 комфорт 1021.7 1016.6
11 15.06 СЗ 2-3
{3}
н/о н/о +19.4 +12.6 65 +21 +21 комфорт 1022.0 1016.9
12 15.06 С 2-2
{3}
25 км 3/3 1080 м
[Sc diur, vesp]
+19.4 +11.9 62 +21 +36 комфорт 1022.1 1017.0
13 15.06 С 2-3
{3}
н/о н/о +19.9 +12.6 63 +22 +22 комфорт 1022.3 1017.2
14 15.06 С 2-2
{3}
н/о н/о +20.5 +12.2 59 +23 +23 комфорт 1022.2 1017.1
15 15.06 С 2-3
{3}
н/о н/о +20.0 +12.5 62 +23 +23 комфорт 1022.4 1017.3
16 15.06 С 2-3
{3}
н/о н/о +19.4 +11.7 61 +21 +21 комфорт 1022.4 1017.3
17 15.06 С 2-3
{3}
н/о н/о +18.8 +11.1 61 +20 +20 1022.5 1017.4
18 15.06 С 2-2
{3}
н/о н/о +18.6 +11.7 64 +20 +20 1022.8 1017.7 +13.7 +20.6
19 15.06 С 2-2
{2}
н/о н/о +17.8 +11.6 67 +19 +19 1023.0 1017.9
20 15.06 С 2-3
{3}
н/о н/о +16.8 +11.5 71 +17 +17 1023.3 1018.2
21 15.06 С 1-2
{3}
н/о н/о +16.3 +12.3 77 +17 +17 1023.8 1018.7
22 15.06 ЮЗ 1-2
{2}
н/о н/о +14.4 +11.7 84 +15 +15 1024.0 1018.8
23 15.06 Ю 1-2
{2}
н/о н/о +14.0 +11.7 86 +14 +14 1023.8 1018.6
00 16.06 Ю 1-1
{2}
25 км 9/9 1300 м
[Sc]
+14.1 +11.8 86 +14 +14 1023.5 1018.3
01 16.06 ЮВ 1-1
{1}
н/о н/о +14.0 +12.0 88 +15 +15 1023.0 1017.8
02 16.06 ЮВ 1-1
{1}
н/о н/о +13.6 +12.0 90 +15 +15 1022.6 1017.4
03 16.06 Ю 1-1
{2}
20 км 10/0 2000 м
[As op]
+13.5 +12.1 91 +14 +14 1022.6 1017.4
04 16.06 ЮВ 1-1
{1}
н/о н/о +13.1 +11.5 90 +14 +14 1022.4 1017.2
05 16.06 ЮВ 1 н/о н/о +12.5 +11.2 92 +12 +12 1022.4 1017.2
06 16.06 В 1
{3}
20 км 3/1 1000 м
[Cu med, cong Ac trans Ci fib]
+13.5 +12.2 92 +14 +16 1022.5 1017.3 +12.5 +18.6
07 16.06 В 1-1
{2}
н/о н/о +15.8 +12.4 80 +17 +17 1022.5 1017.3
08 16.06 В 2-3
{3}
н/о н/о +18.0 +12.9 72 +19 +19 1022.3 1017.2
09 16.06 СВ 2
{6}
20 км 4/3 1000 м
[Cu hum Ci fib]
+20.4 +14.5 69 +24 +32 комфорт 1021.8 1016.7
10 16.06 В 3-5
{5}
н/о н/о +21.9 +13.5 59 +25 +25 комфорт 1021.2 1016.2
11 16.06 В 3-5
{5}
н/о н/о +23.5 +13.7 54 +26 +26 жарко 1020.5 1015.5
12 16.06 СВ 3-5
{5}
30 км 1/0
[Ci fib]
+24.9 +14.7 53 +28 +43 жарко 1019.7 1014.7
13 16.06 В 3-5
{6}
н/о н/о +25.9 +14.4 49 +28 +28 жарко 1018.9 1013.9
14 16.06 В 3-5
{6}
н/о н/о +26.8 +14.9 48 +29 +29 жарко 1018.1 1013.2
15 16.06 В 4-5
{6}
н/о н/о +27.3 +14.0 44 +29 +29 жарко 1017.6 1012.7
16 16.06 СВ 3-5
{5}
н/о н/о +27.7 +15.0 46 +30 +30 жарко 1017.3 1012.4
17 16.06 СВ 4-5
{5}
н/о н/о +25.3 +15.3 54 +28 +28 жарко 1017.1 1012.1
18 16.06 В 3-5
{5}
н/о н/о +25.1 +13.6 49 +27 +27 жарко 1017.1 1012.1 +13.6 +28.2
19 16.06 СВ 2-3
{5}
н/о н/о +23.5 +13.9 55 +26 +26 жарко 1017.2 1012.2
20 16.06 З 3-4
{4}
н/о н/о +19.0 +16.2 84 +21 +21 комфорт 1017.6 1012.5
21 16.06 З 2-3
{4}
н/о н/о +18.3 +15.9 86 +19 +19 1018.1 1013.0
22 16.06 З 2-3
{3}
н/о н/о +17.7 +15.0 84 +18 +18 1018.5 1013.4
23 16.06 ЮЗ 2-4
{4}
н/о н/о +17.3 +14.9 86 +18 +18 1018.5 1013.4
00 17.06 ЮЗ 3-4
{4}
н/о н/о +16.9 +14.7 87 +17 +17 1018.5 1013.4
01 17.06 З 3-3
{4}
н/о н/о +16.7 +15.1 90 +17 +17 1018.3 1013.2
02 17.06 З 3-4
{4}
н/о н/о +16.6 +15.1 91 +16 +16 1018.0 1012.9
03 17.06 Ю 1-2
{4}
25 км 8/0
[Cs]
+15.7 +13.9 89 +16 +16 1017.7 1012.6
04 17.06 ЮВ 1-2
{2}
н/о н/о +14.7 +13.2 91 +15 +15 1017.5 1012.4
05 17.06 ЮВ 1-2
{2}
н/о н/о +15.0 +14.0 94 +15 +15 1017.7 1012.6
06 17.06 ЮВ 2
{5}
8000 м 10/10 450 м
[St]
+15.9 +14.8 93 +16 +16 1017.8 1012.7 +14.4 +25.1
07 17.06 ЮВ 2-3
{3}
н/о н/о +16.8 +14.8 88 +17 +17 1017.7 1012.6
08 17.06 ЮВ 2-3
{3}
н/о н/о +18.7 +14.8 78 +20 +20 1017.3 1012.2
09 17.06 С 2-2
{2}
15 км 1/1 1000 м
[Cu hum]
+20.8 +15.8 73 +25 +36 комфорт 1016.8 1011.8
10 17.06 С 2-2
{3}
н/о н/о +21.0 +16.0 73 +25 +25 комфорт 1016.6 1011.6
11 17.06 С 2-2
{2}
н/о н/о +21.4 +16.4 73 +25 +25 комфорт 1015.9 1010.9
12 17.06 С 2
{5}
20 км 1/1 900 м
[Cu med, cong Cc]
+21.9 +17.1 74 +26 +45 душно 1015.3 1010.3
13 17.06 С 1-2
{2}
н/о н/о +22.5 +17.8 75 +28 +28 душно 1014.6 1009.6
14 17.06 С 1-2
{2}
н/о н/о +22.7 +17.4 72 +28 +28 душно 1013.8 1008.8
15 17.06 С 1-2
{2}
25 км 1/0
[Ci sp]
+23.3 +17.7 71 +29 +44 душно 1013.1 1008.1
16 17.06 СЗ 1-1
{3}
н/о н/о +23.6 +18.3 72 +28 +28 душно 1012.3 1007.3
17 17.06 З 1-2
{2}
н/о н/о +23.5 +17.5 69 +27 +27 душно 1011.7 1006.7
18 17.06 З 5
{13}
10 км 8/3 300 м
[St As op Ci]
+20.5 +17.9 85 +24 +24 комфорт 1012.1 1007.1 +15.9 +24.0
19 17.06 З 6-7
{9}
н/о н/о +18.9 +17.0 89 +20 +20 1012.8 1007.8
20 17.06 З 6-8
{8}
н/о н/о +18.0 +16.2 89 +18 +18 1013.8 1008.7
21 17.06 З 4-5
{7}
н/о н/о +17.5 +15.5 88 +17 +17 1014.3 1009.2
22 17.06 З 3-5
{5}
н/о н/о +17.3 +15.3 88 +17 +17 1014.5 1009.4
23 17.06 З 3-4
{5}
н/о н/о +17.4 +15.4 88 +17 +17 1014.7 1009.6
00 18.06 З 4-4
{4}
17 км 10/10 800 м
[St]
+17.2 +15.2 88 +17 +17 1014.4 1009.3
01 18.06 З 2-3
{4}
н/о н/о +17.1 +14.7 86 +17 +17 1013.5 1008.4
02 18.06 З 2-4
{4}
н/о н/о +17.2 +14.8 86 +17 +17 1013.3 1008.2
03 18.06 ЮВ 1
{5}
15 км 8/0 2000 м
[Ac As]
+16.5 +14.3 87 +18 +18 1012.7 1007.6
04 18.06 В 2-3
{3}
н/о н/о +16.3 +14.7 90 +16 +16 1011.9 1006.8
05 18.06 ЮВ 2-3
{3}
н/о н/о +16.4 +14.9 91 +17 +17 1011.2 1006.1
06 18.06 В 2
{7}
12 км 8/0
[Ac lent Cc]
+17.2 +15.4 89 +18 +19 1011.2 1006.1 +16.2 +20.4
07 18.06 В 1-1
{3}
н/о н/о +19.7 +15.6 77 +23 +23 комфорт 1011.1 1006.1
08 18.06 С 1-2
{2}
н/о н/о +21.8 +17.2 75 +26 +26 душно 1010.7 1005.7
09 18.06 С 1-1
{2}
н/о н/о +21.6 +16.5 73 +25 +25 комфорт 1010.4 1005.4
10 18.06 СВ 2-3
{3}
н/о н/о +23.3 +18.0 72 +29 +29 душно 1009.8 1004.9
11 18.06 ЮВ 2-5
{5}
н/о н/о +29.9 +14.8 40 +32 +32 жарко 1009.3 1004.5
12 18.06 ЮВ 2
{9}
20 км 4/0
[Cc]
+33.5 +13.5 30 +34 +50 очень
жарко
1008.6 1003.8
13 18.06 СЗ 2-4
{6}
н/о н/о +29.7 +17.8 49 +34 +34 очень
душно
1007.9 1003.1
14 18.06 С 2-4
{4}
н/о н/о +27.0 +19.6 64 +33 +33 очень
душно
1007.7 1002.8
15 18.06 СВ 3
{8}
20 км 4/1 1300 м
[Sc diur, vesp Ci]
+27.3 +17.5 55 +31 +40 душно 1006.7 1001.8
16 18.06 СВ 3-4
{6}
н/о н/о +26.0 +17.6 60 +30 +30 душно 1006.0 1001.1
17 18.06 З 7-10
{10}
н/о н/о +21.8 +16.3 71 +26 +26 душно 1007.9 1002.9
18 18.06 З 7
{20}
6000 м 10/10 300 м
[St]
+18.8 +16.6 87 +19 +19 1009.8 1004.8 +17.2 +34.3
19 18.06 З 5-6
{8}
н/о н/о +18.3 +16.1 87 +18 +18 1010.9 1005.9
20 18.06 З 4-5
{6}
н/о н/о +17.6 +15.2 86 +17 +17 1011.5 1006.4
21 18.06 З 3-3
{5}
н/о н/о +17.5 +14.9 85 +18 +18 1011.9 1006.8
22 18.06 З 3-4
{4}
н/о н/о +17.2 +15.2 88 +17 +17 1012.3 1007.2

 

Местоположение метеостанции Сибур (Франция): широта 43.40 долгота -1.68 высота над уровнем моря 25 м.

В архиве по умолчанию представлена погода в Сибуре за последнюю неделю. Архивные данные за месяц целиком и за предыдущие месяцы, начиная с января 2011 года, Вы можете получить, выбрав интересующий диапазон дат из раскрывающегося списка и нажав кнопку "Ввод!".


*Определитесь, кто Вы:
робот инопланетянин человек

Внимание! Время в таблицах - всемирное. Для получения местного времени необходимо прибавить поправку, которая равна 1 ч.

Смотрите также архив погоды в соседних городах и на ближайших метеорологических станциях:

Погода Сан-Себастьян аэропорту (Испания) (11 км)
Погода в Биаррице (Франция) (14 км)
Погода в Сан-Себастьяне (Испания) (30 км)
Погода в Ирурите (Испания) (31 км)
Погода на Мысе Зумая (Испания) (47 км)
Погода в Даксе (Франция) (58 км)
Погода в Элгойбар - Ибердрола (Испания) (63 км)
Погода в Зумаррага - Урзабалета (Испания) (63 км)
Погода на Мысе Лекейтио (Испания) (67 км)
Погода в Илундайне (Испания) (70 км)

Пояснения к столбцам:

Ветер - указаны скорость ветра в м/с - средняя за 10 мин, порывы в срок и между сроками (в фигурных скобках) и направление, откуда дует ветер: С - северный, СВ - северо-восточный, В - восточный, ЮВ - юго-восточный, Ю - южный, ЮЗ - юго-западный, З - западный, СЗ - северо-западный.
Видимость - горизонтальная дальность видимости в метрах или километрах. При видимости от 1 до 10 км при отсутствии осадков обычно наблюдается дымка, при ухудшении видимости до 1 км и менее - туман. В сухую погоду видимость может ухудшаться дымом, пылью или мглою.
Явления - указаны атмосферные явления, наблюдавшиеся в срок или в последний час перед сроком; фигурными скобками обозначены явления, наблюдавшиеся между сроками (за 1-3 часа до срока); квадратными скобками обозначены град или гололедные отложения с указанием их диаметра в мм.
Облачность - указаны через наклонную черту общая и нижняя облачность в баллах и высота нижней границы облаков в метрах; квадратными скобками обозначены формы облаков: Ci - перистые, Cs - перисто-слоистые, Cc - перисто-кучевые, Ac - высококучевые, As - высокослоистые, Sc - слоисто-кучевые, Ns - слоисто-дождевые, Cu - кучевые, Cb - кучево-дождевые. Подробнее классификацию облаков см. в Атласе облаков (PDF).
T - Температура воздуха - температура, измеренная на высоте 2 м над землей.
Td - Температура точки росы - температура, при понижении до которой содержащийся в воздухе водяной пар достигнет насыщения.
f - Относительная влажность воздуха - влажноcть воздуха, измеренная на высоте 2 м над землей.
Te - Эффективная температура - температура, которую ощущает одетый по сезону человек в тени. Характеристика душности погоды. При расчете учитывается влияние влажности воздуха и скорости ветра на теплоощущения человека.
Tes - Эффективная температура на солнце - температура, которую ощущает человек, с поправкой на солнечный нагрев. Характеристика знойности погоды. Зависит от высоты солнца над горизонтом, облачности и скорости ветра. Ночью, в пасмурную погоду, а также при ветре 12 м/с и более поправка равна нулю.
P - Атмосферное давление - приведенное к уровню моря атмосферное давление.
Po - Атмосферное давление - измеренное на уровне метеостанции атмосферное давление.
Tmin - Минимальная температура - минимум температуры воздуха на высоте 2 м над землей.
Tmax - Максимальная температура - максимум температуры воздуха на высоте 2 м над землей.
R - Количество осадков - Количество выпавших осадков за период времени, мм. При наведении курсора мыши на число - период времени, за который выпало указанное количество осадков.
R24 - Количество осадков - Количество выпавших осадков за 24 часа, мм.
S - Снежный покров - Высота снежного покрова, см. При наведении курсора мыши на число - состояние снежного покрова и степень покрытия местности в баллах.